{"data":{"norad_id":48580,"epoch":"2026-05-25T03:35:44.695104Z","epoch_age_seconds":58009,"freshness":"FRESH","line1":"1 48580U 21041AD  26145.14982286  .00000316  00000+0  21946-4 0  9996","line2":"2 48580  53.1592 105.3928 0001249  91.5262 268.5882 15.31697853277352","mean_motion":15.31697853,"eccentricity":0.0001249,"inclination_deg":53.1592,"raan_deg":105.3928,"arg_perigee_deg":91.5262,"mean_anomaly_deg":268.5882,"bstar":2.1946e-5,"rev_number":27735,"period_min":94.013319740548,"perigee_km":469.89096979233,"apogee_km":471.60182086448,"semimajor_km":6848.8833953284,"source":"CELESTRAK","updated_at":"2026-05-25T13:38:16.748966Z"}}